FW8483 Weather Reports


time (UTC)temp
F
wind
direction
speed
knots
gust
knots
rain 1hr
in
rain 24hr
in
rain mn
in
humidity
%
barometer
mb
20260503025503 58 303 0.0 3.5 0.00 2.26 1.02 72 1016.9
20260503025005 58 337 0.0 3.5 0.00 2.29 1.02 72 1016.9
20260503024515 58 350 0.0 2.6 0.00 2.31 1.02 72 1016.8
20260503024004 58 303 0.0 0.0 0.00 2.31 1.02 72 1016.8
20260503023504 58 328 0.0 0.0 0.00 2.33 1.02 72 1016.7
20260503023036 58 350 0.0 1.7 0.00 2.35 1.02 71 1016.6
20260503022503 58 329 0.0 1.7 0.00 2.45 1.02 73 1016.5
20260503022003 58 319 0.0 0.0 0.00 2.50 1.02 72 1016.4
20260503021517 59 351 0.0 0.0 0.00 2.54 1.02 73 1016.3
20260503021004 59 351 0.0 2.6 0.00 2.56 1.02 73 1016.2
20260503020504 59 329 0.0 2.6 0.00 2.57 1.02 1016.2
20260503020015 60 329 0.0 1.7 0.00 2.58 1.02 69 1016.1
20260503015507 60 321 0.0 1.7 0.00 2.58 1.02 69 1016.0
20260503015009 61 317 0.0 0.0 0.00 2.59 1.02 69 1015.9
20260503014517 61 345 0.0 0.0 0.00 2.60 1.02 70 1015.8
20260503014005 61 335 0.0 0.0 0.00 2.61 1.02 67 1015.8
20260503013503 62 333 0.0 2.6 0.00 2.61 1.02 66 1015.7
20260503013018 62 336 0.0 5.2 0.00 2.61 1.02 66 1015.6
20260503012506 62 352 0.9 5.2 0.00 2.61 1.02 67 1015.6
20260503012006 62 320 1.7 4.3 0.00 2.61 1.02 68 1015.4
20260503011519 62 360 2.6 4.3 0.00 2.62 1.02 69 1015.3
20260503011007 62 325 0.9 2.6 0.00 2.62 1.02 73 1015.3
20260503010514 62 340 0.0 0.0 0.00 2.62 1.02 74 1015.2
20260503010024 63 334 0.0 0.0 0.00 2.63 1.02 74 1015.0
20260503005503 63 321 0.0 0.0 0.00 2.64 1.02 72 1014.8
20260503005007 64 348 0.0 0.0 0.00 2.65 1.02 70 1014.7
20260503004542 64 323 0.0 0.0 0.00 2.67 1.02 69 1014.6
20260503004007 65 331 0.0 2.6 0.00 2.69 1.02 68 1014.3
20260503003505 65 9 0.0 2.6 0.00 2.70 1.02 66 1014.1
20260503003018 65 333 0.0 3.5 0.00 2.72 1.02 65 1014.1
20260503002509 66 337 0.9 4.3 0.00 2.72 1.02 64 1013.9
20260503002006 66 40 1.7 4.3 0.00 2.73 1.02 63 1013.8
20260503001519 67 331 1.7 3.5 0.00 2.73 1.02 63 1013.7
20260503001006 67 337 0.9 3.5 0.00 2.73 1.02 62 1013.6
20260503000504 67 320 0.9 3.5 0.00 2.73 1.02 61 1013.5
20260503000024 68 19 0.0 6.1 0.00 2.73 1.02 61 1013.4
20260502235503 68 339 2.6 6.1 0.00 2.73 1.02 60 1013.4
20260502235004 68 329 1.7 6.1 0.00 2.73 1.02 60 1013.2
20260502234514 69 76 2.6 3.5 0.00 2.73 1.02 59 1013.0
20260502234005 69 352 1.7 8.7 0.00 2.73 1.02 58 1012.9
20260502233505 70 340 0.9 8.7 0.00 2.73 1.02 57 1012.7
20260502233020 70 315 3.5 8.7 0.00 2.73 1.02 56 1012.6
20260502232507 70 330 2.6 8.7 0.00 2.73 1.02 56 1012.5
20260502232006 71 348 3.5 8.7 0.00 2.73 1.02 56 1012.4
20260502231521 71 326 3.5 8.7 0.00 2.73 1.02 56 1012.4
20260502231007 71 349 3.5 7.8 0.00 2.73 1.02 55 1012.4
20260502230507 71 360 1.7 7.8 0.00 2.73 1.02 55 1012.5
20260502230020 71 292 2.6 11.3 0.00 2.73 1.02 55 1012.5
20260502225506 71 321 4.3 11.3 0.00 2.73 1.02 54 1012.3
20260502225007 72 301 4.3 10.4 0.00 2.73 1.02 56 1012.4
20260502224522 72 297 2.6 10.4 0.00 2.73 1.02 56 1012.4
20260502224005 72 322 5.2 10.4 0.00 2.73 1.02 55 1012.4
20260502223504 72 342 3.5 9.6 0.00 2.74 1.02 56 1012.3
20260502223020 72 304 2.6 10.4 0.00 2.74 1.02 57 1012.3
20260502222505 72 10 2.6 11.3 0.00 2.74 1.02 56 1012.2
20260502222007 71 342 5.2 11.3 0.00 2.74 1.02 55 1012.3
20260502221519 71 296 7.8 12.2 0.00 2.74 1.02 56 1012.2
20260502221007 71 349 5.2 12.2 0.00 2.74 1.02 58 1012.2
20260502220508 70 318 3.5 9.6 0.00 2.74 1.02 59 1012.2
20260502220022 70 22 3.5 9.6 0.00 2.74 1.02 59 1012.2
20260502215508 71 336 4.3 11.3 0.00 2.74 1.02 57 1012.2
20260502215007 71 342 3.5 11.3 0.00 2.74 1.02 57 1012.1
20260502214522 71 339 3.5 9.6 0.00 2.74 1.02 57 1012.1
20260502214005 71 340 3.5 12.2 0.00 2.74 1.02 58 1012.0
20260502213507 71 327 4.3 12.2 0.00 2.74 1.02 58 1012.0
20260502213025 71 341 4.3 12.2 0.00 2.74 1.02 58 1012.0
20260502212507 71 352 6.1 12.2 0.00 2.74 1.02 56 1012.0
20260502212007 72 360 6.1 12.2 0.00 2.74 1.02 57 1011.9
20260502211522 72 28 7.0 12.2 0.00 2.74 1.02 57 1011.8
20260502211004 72 344 5.2 11.3 0.00 2.74 1.02 57 1011.8
20260502210503 72 350 4.3 11.3 0.00 2.74 1.02 58 1011.8
20260502210004 72 317 1.7 11.3 0.00 2.74 1.02 59 1011.8
20260502205503 72 339 4.3 14.8 0.00 2.74 1.02 59 1011.9
20260502205004 72 324 5.2 14.8 0.00 2.74 1.02 58 1011.9
20260502204520 71 295 6.1 14.8 0.00 2.74 1.02 59 1011.9
20260502204004 71 11 4.3 12.2 0.00 2.74 1.02 60 1012.1
20260502203504 70 335 6.1 12.2 0.00 2.74 1.02 61 1012.1
20260502203018 71 345 4.3 13.9 0.00 2.74 1.02 60 1012.1
20260502202503 72 5 4.3 13.9 0.00 2.74 1.02 61 1012.1
20260502202006 71 349 2.6 10.4 0.00 2.74 1.02 63 1012.1
20260502201519 70 323 5.2 10.4 0.00 2.74 1.02 64 1012.3
20260502201009 70 52 4.3 9.6 0.00 2.74 1.02 65 1012.5
20260502200508 69 325 2.6 9.6 0.00 2.75 1.02 64 1012.6
20260502200004 69 335 2.6 9.6 0.00 2.75 1.02 64 1012.7
20260502195505 69 360 5.2 11.3 0.00 2.75 1.02 65 1012.9
20260502195003 69 22 4.3 11.3 0.00 2.76 1.02 63 1012.8
20260502194508 69 337 5.2 12.2 0.00 2.77 1.02 64 1012.8
20260502194004 69 303 5.2 12.2 0.00 2.78 1.02 66 1012.9
20260502193503 68 47 7.0 12.2 0.00 2.79 1.02 66 1013.0
20260502193014 68 352 5.2 12.2 0.00 2.79 1.02 65 1013.1
20260502192506 68 342 4.3 12.2 0.00 2.79 1.02 66 1013.0
20260502192010 68 22 5.2 12.2 0.00 2.79 1.02 65 1013.1
20260502191521 68 352 7.8 12.2 0.00 2.79 1.02 67 1013.1
20260502191008 68 16 2.6 11.3 0.00 2.79 1.02 70 1013.0
20260502190509 67 25 5.2 10.4 0.00 2.79 1.02 71 1013.2
20260502190025 67 14 4.3 7.8 0.00 2.79 1.02 72 1013.2
20260502185507 66 32 3.5 10.4 0.00 2.79 1.02 74 1013.3
20260502185003 65 294 6.1 10.4 0.00 2.79 1.02 73 1013.3
20260502184508 65 332 7.0 10.4 0.00 2.79 1.02 74 1013.2
20260502184004 66 352 5.2 9.6 0.00 2.79 1.02 74 1013.4
20260502183504 65 352 5.2 9.6 0.00 2.79 1.02 74 1013.3
20260502183013 65 352 6.1 12.2 0.00 2.80 1.02 74 1013.3
20260502182504 65 329 5.2 12.2 0.00 2.80 1.02 75 1013.2
20260502182004 66 352 6.1 12.2 0.00 2.80 1.02 75 1013.2
20260502181518 66 26 6.1 12.2 0.00 2.80 1.02 74 1013.0
20260502181006 66 349 7.0 12.2 0.00 2.80 1.02 76 1013.0
20260502180506 66 346 5.2 10.4 0.00 2.80 1.02 76 1013.1
20260502170511 61 33 4.3 9.6 0.00 2.80 1.02 83 1013.6
20260502164011 60 48 6.1 9.6 0.00 2.80 1.02 85 1013.6
20260502163503 60 352 5.2 9.6 0.00 2.80 1.02 85 1013.6
20260502163013 60 331 4.3 13.9 0.00 2.80 1.02 87 1013.4
20260502162509 59 16 7.0 13.9 0.00 2.80 1.02 86 1013.4
20260502162001 59 343 5.2 9.6 0.00 2.80 1.02 87 1013.8
20260502161515 59 38 3.5 9.6 0.00 2.80 1.02 87 1013.8
20260502161005 59 348 5.2 9.6 0.00 2.80 1.02 88 1013.7
20260502160507 58 5 2.6 8.7 0.00 2.80 1.02 89 1013.6
20260502152004 57 47 0.9 9.6 0.00 2.80 1.02 92 1013.5
20260502151510 57 325 4.3 8.7 0.00 2.80 1.02 92 1013.5
20260502151004 57 34 2.6 7.8 0.00 2.80 1.02 93 1013.4
20260502150504 57 318 4.3 8.7 0.00 2.80 1.02 93 1013.4
20260502130504 54 69 3.5 7.8 0.02 2.80 1.02 95 1012.0
20260502123509 54 30 3.5 8.7 0.03 2.80 1.02 95 1011.7
20260502123028 54 11 4.3 8.7 0.04 2.79 1.01 95 1012.1
20260502122508 54 5 2.6 9.6 0.06 2.79 1.01 95 1012.3
20260502122009 54 56 4.3 12.2 0.10 2.78 1.00 95 1011.9
20260502121506 54 360 6.1 12.2 0.11 2.78 1.00 95 1011.6
20260502121004 54 36 5.2 9.6 0.11 2.78 1.00 95 1011.3
20260502120503 54 15 2.6 9.6 0.11 2.78 1.00 95 1011.4
20260502115504 54 61 4.3 7.8 0.12 2.78 1.00 95 1011.7
20260502115008 54 19 2.6 7.8 0.12 2.78 1.00 95 1011.8
20260502114521 55 9 2.6 7.8 0.13 2.78 1.00 95 1012.0
20260502114007 55 81 3.5 7.8 0.14 2.77 0.99 95 1012.2
20260502113508 55 20 2.6 8.7 0.15 2.77 0.99 95 1012.3
20260502113024 55 298 3.5 7.8 0.14 2.75 0.97 95 1012.3
20260502112507 55 28 1.7 8.7 0.12 2.73 0.95 95 1012.9
20260502112006 55 9 3.5 8.7 0.08 2.68 0.90 96 1012.8
20260502111532 55 286 3.5 7.0 0.07 2.67 0.89 96 1012.4
20260502111004 55 340 1.7 5.2 0.07 2.67 0.89 96 1011.3
20260502110505 55 47 0.9 8.7 0.08 2.67 0.89 96 1011.0
20260502110012 55 271 2.6 8.7 0.09 2.66 0.88 96 1010.5
20260502105505 55 30 3.5 7.0 0.15 2.66 0.88 96 1010.7
20260502105004 55 46 2.6 8.7 0.19 2.66 0.88 96 1011.0
20260502104519 55 29 3.5 8.7 0.25 2.65 0.87 95 1010.9
20260502104004 55 34 3.5 10.4 0.27 2.63 0.85 95 1010.9
20260502103504 55 45 2.6 10.4 0.29 2.62 0.84 95 1011.6
20260502103021 56 34 3.5 9.6 0.29 2.61 0.83 95 1010.8
20260502102508 56 10 3.5 9.6 0.29 2.61 0.83 96 1011.4
20260502102008 56 26 6.1 9.6 0.28 2.60 0.82 96 1011.6
20260502101525 56 298 4.3 8.7 0.29 2.60 0.82 96 1011.6
20260502101012 56 315 1.7 7.8 0.29 2.60 0.82 96 1010.8
20260502100507 56 331 3.5 8.7 0.28 2.59 0.81 96 1010.5
20260502091015 56 60 2.6 5.2 0.17 2.31 0.52 96 1009.6
20260502090508 56 87 2.6 7.0 0.22 2.31 0.52 96 1009.6
20260502071520 56 16 1.7 7.0 0.02 1.88 0.10 96 1011.3
20260502071004 56 329 3.5 7.8 0.00 1.86 0.08 96 1011.4
20260502070509 56 11 3.5 7.8 0.00 1.86 0.08 96 1011.0
20260502070024 56 64 4.3 9.6 0.00 1.86 0.08 96 1010.9
20260502065508 56 55 5.2 9.6 0.00 1.86 0.08 96 1011.0
20260502065013 56 88 4.3 8.7 0.00 1.86 0.08 96 1011.1
20260502064531 56 94 4.3 8.7 0.00 1.86 0.08 96 1011.3
20260502064016 56 46 3.5 8.7 0.00 1.86 0.08 96 1011.3
20260502063509 56 20 4.3 7.8 0.02 1.86 0.08 96 1011.3
20260502063018 56 72 2.6 7.0 0.03 1.86 0.08 96 1011.4
20260502062507 56 71 2.6 8.7 0.06 1.86 0.08 96 1011.4
20260502062005 56 96 3.5 8.7 0.06 1.86 0.08 96 1011.5
20260502061517 56 80 2.6 7.8 0.06 1.86 0.08 96 1011.4
20260502061007 56 60 3.5 7.8 0.07 1.86 0.08 96 1011.5
20260502060507 56 74 2.6 7.0 0.07 1.86 0.08 96 1011.7
20260502060024 56 34 1.7 6.1 0.08 1.86 0.08 96 1012.0
20260502055508 56 26 1.7 7.8 0.09 1.86 0.08 96 1012.0
20260502055008 56 34 3.5 9.6 0.10 1.86 0.08 96 1011.9
20260502054526 56 46 4.3 9.6 0.11 1.86 0.08 96 1011.5
20260502054006 56 18 4.3 10.4 0.14 1.86 0.08 96 1011.7
20260502053509 56 40 4.3 10.4 0.14 1.84 0.06 96 1011.6
20260502053026 56 93 7.8 10.4 0.16 1.83 0.05 96 1011.9
20260502052510 56 61 1.7 4.3 0.15 1.80 0.02 96 1013.1
20260502052006 56 116 0.9 4.3 0.18 1.80 0.02 96 1013.3
20260502051516 56 337 2.6 4.3 0.21 1.80 0.02 96 1013.4
20260502051006 56 309 0.0 2.6 0.25 1.79 0.01 96 1013.5
20260502050508 56 11 0.9 2.6 0.31 1.79 0.01 96 1013.3
20260502050026 56 24 0.0 2.6 0.41 1.78 0.00 96 1013.3
20260502045506 56 54 0.9 2.6 0.48 1.77 1.77 96 1013.1
20260502045013 56 46 0.9 2.6 0.61 1.76 1.76 96 1013.0
20260502044525 56 76 1.7 2.6 0.73 1.75 1.75 96 1013.3
20260502044011 56 5 0.9 1.7 0.77 1.72 1.72 96 1013.6
20260502043511 56 32 0.0 4.3 0.79 1.70 1.70 96 1013.9
20260502043026 56 40 0.9 5.2 0.82 1.67 1.67 96 1013.8
20260502042511 56 46 1.7 4.3 0.83 1.65 1.65 96 1013.6
20260502042011 56 292 1.7 6.1 0.84 1.62 1.62 96 1013.9
20260502041529 56 19 0.9 8.7 0.88 1.59 1.59 96 1013.8
20260502041009 56 35 1.7 12.2 0.88 1.54 1.54 96 1013.5
20260502040503 56 322 5.2 12.2 0.85 1.48 1.48 96 1013.4
20260502040019 56 295 3.5 8.7 0.81 1.37 1.37 96 1014.2
20260502035506 56 276 4.3 8.7 0.75 1.29 1.29 96 1013.4
20260502035006 56 315 3.5 8.7 0.64 1.15 1.15 96 1013.7
20260502034525 56 286 2.6 7.0 0.52 1.02 1.02 96 1013.4
20260502034007 56 9 2.6 10.4 0.46 0.95 0.95 95 1012.5
20260502033508 56 36 6.1 10.4 0.44 0.91 0.91 95 1012.1
20260502033012 56 74 3.5 12.2 0.41 0.85 0.85 95 1012.1
20260502032504 56 53 5.2 12.2 0.47 0.82 0.82 95 1011.7
20260502032004 57 80 4.3 7.8 0.48 0.78 0.78 95 1012.1
20260502031511 57 43 2.6 8.7 0.45 0.71 0.71 95 1012.4
20260502031004 57 17 4.3 8.7 0.42 0.66 0.66 95 1012.0
20260502030505 56 30 5.2 8.7 0.40 0.63 0.63 95 1011.8
20260502030022 57 51 1.7 4.3 0.34 0.56 0.56 95 1012.6